FLTSATCOM 8 (USA 46)

Last updated on Thu Nov 06 2025 00:02:45 GMT+0000 (Coordinated Universal Time)

1 20253U 89077A 25308.98876103 -.00000361 00000+0 00000+0 0 9992 2 20253 12.4849 352.5020 0006090 253.1250 280.4805 1.00267000258314
UTC large
Height (km)
Speed (km/s)
/
Latitude / Longitude
Inclination (degrees)
Orbital Period (minutes)
Azimuth
Elevation
Range (km)
Doppler Factor

Next 0 passes for location: London (51.5072 / 0.1276)

Sorry there are no passes over London.